{"data":{"norad_id":57947,"epoch":"2026-05-24T22:41:57.304032Z","epoch_age_seconds":79652,"freshness":"FRESH","line1":"1 57947U 23148N   26144.94580213  .00000828  00000+0  35646-4 0  9994","line2":"2 57947  53.1606  29.6369 0001127  89.2239 270.8893 15.34387153150108","mean_motion":15.34387153,"eccentricity":0.0001127,"inclination_deg":53.1606,"raan_deg":29.6369,"arg_perigee_deg":89.2239,"mean_anomaly_deg":270.8893,"bstar":3.5646e-5,"rev_number":15010,"period_min":93.848543842703,"perigee_km":461.97045746647,"apogee_km":463.51239146335,"semimajor_km":6840.8784244649,"source":"CELESTRAK","updated_at":"2026-05-25T13:38:18.462661Z"}}